Location: Dos Palmas
(32.4468°N, 116.8732°W)
Time: 22:59:47
(UTC+00:00)

ATLAS 5 CENTAUR R/B - Pass Details

Date: 20 June 2021
Orbit: 510 x 1148 km, 63.4° (Epoch: 28 July)

Event Time Altitude Azimuth Distance (km) Brightness Sun altitude
Exits shadow 09:15:25 27° 17° (NNE) 1,064 3.3 -30.4°
Drops below altitude 10° 09:17:25 10° 25° (NNE) 1,853 4.9 -30.3°
Sets 09:19:47 0° 28° (NNE) 2,825 6.1 -30.1°
